STARLINK-1480, 45741

Orbit data source: Space-Track

STARLINK-1480, 45741 is a payload satellite owned by SpaceX/Seattle (US) in LEO that was launched on Sat, 13 Jun 2020 UTC via an FALCON 9 launch vehicle from the Air Force Eastern Test Range (AFETR). Payload-class satellites include a variety of spacecraft equipped with specific instruments for various scientific and technological missions. These include communications satellites like Starlink; space stations such as the ISS; scientific satellites like the Hubble; Earth observation satellites from companies like Planet Labs, Umbra, and HawkEye 360; GPS; miniature CubeSats for education and research; and military/defense satellites.

Loading next visibility...
Identifier
45741, 2020-038M
Orbit
LEO
Country
Flag of USUS
Related business
Manufacturer
SpaceX/Seattle
Mission
Partially operational Commercial Communications
Bus & Motor
STARLINK, Unknown motor
Mass
260 kg wet, ~248 kg dry
Launch date (UTC)
2020-06-13 (6 years ago)
Launch vehicle
FALCON 9
Launch site
Air Force Eastern Test Range (AFETR)
Object type
Payload
Rocket body
Debris
Shape & HBR
Box + 1 Pan, 10.1 m
Radar Cross Section
13.562 m², Large (>1 m²)

Expand to show TLE details & history
Last TLE update: 13 hours ago

TLE from 13 hours ago
0 STARLINK-1480
1 45741U 20038M   26170.46097573  .00046936  00000-0  44519-3 0  9995
2 45741  53.0473  82.1845 0005808  71.9193 288.2455 15.66444712332354
Epoch: 2026-06-19T11:03Z
TLE epoch observation values (Epoch: 2026-06-19T11:03:48.303Z)
Latitude
0.00006°
Longitude
8.54366°
Altitude
368.764 km
Speed
7.69 km/s
True Right ascension
05h 28m 44s
True Declination
0° 00' 00"
Sunlit
Object was in daylight at epoch
Visualization orbit readout
Latitude
Unknown
Longitude
Unknown
Altitude
Unknown
Speed
Unknown
Apparent Right ascension
Unknown
Apparent Declination
Unknown
Sunlit
N/A
Visualization observer readout
Local Sidereal Time
10:52:25
Azimuth
Unknown
Elevation
Unknown
Doppler factor
Unknown
Orbital elements
Apogee altitude
373.285 km
Perigee altitude
365.447 km
Semi-major axis
6,747.503 km
Eccentricity
0.00058
Inclination
53.0473°
RAAN
82.1845°
Arg. of periapsis
71.9193°
True anomaly
288.18228°
Mean anomaly
288.2455°
Eccentric anomaly
288.21389°
Mean motion
3.91587 °/min
Orbital period
91.93 mins
BSTAR
0.00044519
Loading maneuver chart data...
Computing Atmospheric mass density...

Documentation

Showing up to 5 results
|